sat.trackr.live / text

‹ back to catalog

KSM1-D

NORAD 46907 · 2020-081C

PAYLOAD ACTIVE UNKNOWN

§ Identity

Operator
Country
LUXE
Launch date
2020-11-07
Launch site
SRILR
Launch vehicle
Mass (kg)
RCS (m²)

External: N2YO · Heavens-Above · Gunter

§ Orbital elements

Epoch: 2026-05-25T05:44:23.956224Z

Period
94.47 min
Inclination
36.8958°
Eccentricity
0.0002738
Mean motion
15.24360743 rev/d
Perigee alt
490.8 km
Apogee alt
494.6 km
Semi-major
6,870.8 km
B*
2.5040e-4
RAAN
209.1448°
Arg perigee
55.8817°
Mean anomaly
304.2191°
Rev number
30,559

§ Raw data

KSM1-D1 46907U 20081C   26145.23916616  .00006181  00000+0  25040-3 0  99982 46907  36.8958 209.1448 0002738  55.8817 304.2191 15.24360743305596

JSON: /api/v1/satellites/46907 · /tle

For live sub-satellite position, see the globe view (requires WebGL).

§ Visibility from observer

Set your observer location to see the next 7 days of passes ≥ 10°. The values pass through the URL so the page stays shareable.

No JS? Fill the form by hand. The geolocation button needs JavaScript.

§ Radio — SatNOGS DB

ModeDescriptionDownlinkUplink
FSK AX.100 Mode 5 UHF Unknown 401.090 MHz

1 transmitter · refreshed weekly from db.satnogs.org